Location: Caltech
(34.1382°N, 118.1253°W)
Time: 07:10:54
(UTC-07:00)

Cosmos 1833 - Visible Passes

Search period start: 30 July 2015 00:00
Search period end: 09 August 2015 00:00
Orbit: 836 x 863 km, 70.9° (Epoch: 30 July)

Date Brightness Start Highest point End Pass type
(mag) Time Alt. Az. Time Alt. Az. Time Alt. Az.
30 Jul 6.1 03:02:03 10° N 03:06:51 27° ENE 03:11:43 10° ESE visible
30 Jul 4.8 04:45:57 10° NW 04:51:10 36° WSW 04:56:16 10° SSW visible
31 Jul 6.1 02:49:21 10° N 02:54:08 27° ENE 02:58:59 10° ESE visible
31 Jul 4.7 04:33:14 10° NW 04:38:27 36° WSW 04:42:28 15° SSW visible
01 Aug 6.1 02:36:39 10° N 02:41:25 27° ENE 02:45:33 13° ESE visible
01 Aug 4.7 04:20:30 10° NW 04:25:45 36° WSW 04:27:21 30° SW visible
02 Aug 6.0 02:23:57 10° N 02:28:42 27° ENE 02:31:12 20° E visible
02 Aug 4.7 04:07:47 10° NW 04:13:02 37° WSW 04:13:03 37° WSW visible
03 Aug 5.9 02:11:15 10° N 02:15:59 26° ENE 02:17:19 24° E visible
03 Aug 5.0 03:55:04 10° NW 03:59:12 34° W 03:59:12 34° W visible
04 Aug 5.9 01:58:33 10° N 02:03:16 26° ENE 02:03:42 26° ENE visible
04 Aug 5.3 03:42:21 10° NW 03:45:35 29° WNW 03:45:35 29° WNW visible
05 Aug 6.0 01:45:51 10° N 01:50:18 26° NE 01:50:18 26° NE visible
05 Aug 5.7 03:29:37 10° NW 03:32:12 24° NW 03:32:12 24° NW visible
06 Aug 6.1 01:33:09 10° N 01:37:02 25° NE 01:37:02 25° NE visible
06 Aug 5.9 03:16:54 10° NW 03:18:57 21° NW 03:18:57 21° NW visible
07 Aug 6.2 01:20:27 10° N 01:23:53 24° NE 01:23:53 24° NE visible
07 Aug 6.1 03:04:10 10° NW 03:05:48 18° NW 03:05:48 18° NW visible
08 Aug 6.3 01:07:46 10° N 01:10:49 22° NE 01:10:49 22° NE visible
08 Aug 6.3 02:51:28 10° NW 02:52:45 17° NW 02:52:45 17° NW visible
